Location: Newark
(52.1752°N, 10.4140°W)
Time: 20:43:01
(UTC+00:00)

N. Korean satellite - Pass Details

Date: 19 November 2019
Orbit: 456 x 506 km, 97.2° (Epoch: 07 December)

Event Time Altitude Azimuth Distance (km) Brightness Sun altitude
Rises 06:05:55 0° 20° (NNE) 2,624 10.4 -18.4°
Reaches altitude 10° 06:08:12 10° 31° (NNE) 1,730 9.6 -18.0°
Maximum altitude 06:11:34 32° 96° (E) 890 8.6 -17.5°
Drops below altitude 10° 06:14:53 10° 160° (SSE) 1,700 9.7 -17.0°
Sets 06:17:06 0° 171° (S) 2,570 10.5 -16.7°
